******** Week 358 almanac for PRN-1 ******** ID: 1 Health: 0 Eccentricity: 0.00153875351 Time of Applicability(s): 589824 Orbital Inclination(rad): 0.9583748704 Rate of Right Ascen(r/s): -8.000333246e-09 SQRT(A) (m 1/2): 5153.578125 Right Ascen at Week(rad): -2.898655189 Argument of Perigee(rad): 0.05506826248 Mean Anom(rad): 1.864958491 Af0(s): 0.0002600176392 Af1(s/s): -7.275958e-12 week: 358 ******** Week 358 almanac for PRN-2 ******** ID: 2 Health: 0 Eccentricity: 0.01693105698 Time of Applicability(s): 589824 Orbital Inclination(rad): 0.963683882 Rate of Right Ascen(r/s): -7.954617056e-09 SQRT(A) (m 1/2): 5153.548828 Right Ascen at Week(rad): -3.061147047 Argument of Perigee(rad): -0.8200318247 Mean Anom(rad): -2.979949429 Af0(s): 3.391534424e-05 Af1(s/s): 7.275958e-12 week: 358 ******** Week 358 almanac for PRN-3 ******** ID: 3 Health: 0 Eccentricity: 0.006453037262 Time of Applicability(s): 589824 Orbital Inclination(rad): 0.9930632094 Rate of Right Ascen(r/s): -7.520313251e-09 SQRT(A) (m 1/2): 5153.591309 Right Ascen at Week(rad): -1.912092822 Argument of Perigee(rad): 1.203082482 Mean Anom(rad): -0.2971694545 Af0(s): 0.0004446678467 Af1(s/s): -1.091394e-11 week: 358 ******** Week 358 almanac for PRN-4 ******** ID: 4 Health: 0 Eccentricity: 0.003725528717 Time of Applicability(s): 589824 Orbital Inclination(rad): 0.9704429849 Rate of Right Ascen(r/s): -8.034620388e-09 SQRT(A) (m 1/2): 5153.678223 Right Ascen at Week(rad): -0.8410618924 Argument of Perigee(rad): -2.884258389 Mean Anom(rad): 2.698210788 Af0(s): 3.617636719e-05 Af1(s/s): 3.637979e-12 week: 358 ******** Week 358 almanac for PRN-5 ******** ID: 5 Health: 0 Eccentricity: 0.005386829376 Time of Applicability(s): 589824 Orbital Inclination(rad): 0.9796468696 Rate of Right Ascen(r/s): -7.668890868e-09 SQRT(A) (m 1/2): 5153.656738 Right Ascen at Week(rad): -1.971728197 Argument of Perigee(rad): 1.418149135 Mean Anom(rad): -2.929645271 Af0(s): -0.0001808818359 Af1(s/s): 0 week: 358 ******** Week 358 almanac for PRN-6 ******** ID: 6 Health: 0 Eccentricity: 0.003871440887 Time of Applicability(s): 589824 Orbital Inclination(rad): 0.9872748288 Rate of Right Ascen(r/s): -7.703178011e-09 SQRT(A) (m 1/2): 5153.587402 Right Ascen at Week(rad): -2.948361259 Argument of Perigee(rad): -0.5813989422 Mean Anom(rad): 1.038784376 Af0(s): -0.0004831052368 Af1(s/s): 0 week: 358 ******** Week 358 almanac for PRN-7 ******** ID: 7 Health: 0 Eccentricity: 0.02042198181 Time of Applicability(s): 589824 Orbital Inclination(rad): 0.9513341383 Rate of Right Ascen(r/s): -7.897471818e-09 SQRT(A) (m 1/2): 5153.57373 Right Ascen at Week(rad): 0.1675297271 Argument of Perigee(rad): -1.995046503 Mean Anom(rad): 0.1608586334 Af0(s): -0.0001198342163 Af1(s/s): -3.637979e-12 week: 358 ******** Week 358 almanac for PRN-8 ******** ID: 8 Health: 0 Eccentricity: 0.01154470444 Time of Applicability(s): 589824 Orbital Inclination(rad): 0.9434365341 Rate of Right Ascen(r/s): -8.400349908e-09 SQRT(A) (m 1/2): 5153.623535 Right Ascen at Week(rad): 2.215161511 Argument of Perigee(rad): 0.5204130942 Mean Anom(rad): 2.993171774 Af0(s): 0.00038588125 Af1(s/s): -3.637979e-12 week: 358 ******** Week 358 almanac for PRN-9 ******** ID: 9 Health: 0 Eccentricity: 0.003368377686 Time of Applicability(s): 589824 Orbital Inclination(rad): 0.9645647226 Rate of Right Ascen(r/s): -8.103194673e-09 SQRT(A) (m 1/2): 5153.723145 Right Ascen at Week(rad): -0.9052550186 Argument of Perigee(rad): 2.069670399 Mean Anom(rad): -2.69465784 Af0(s): 0.0006082151733 Af1(s/s): 0 week: 358 ******** Week 358 almanac for PRN-10 ******** ID: 10 Health: 0 Eccentricity: 0.01094388962 Time of Applicability(s): 589824 Orbital Inclination(rad): 0.9926018167 Rate of Right Ascen(r/s): -7.543171346e-09 SQRT(A) (m 1/2): 5153.609375 Right Ascen at Week(rad): -1.914600895 Argument of Perigee(rad): -2.257202172 Mean Anom(rad): -1.283848668 Af0(s): -0.0004657707275 Af1(s/s): 0 week: 358 ******** Week 358 almanac for PRN-11 ******** ID: 11 Health: 0 Eccentricity: 0.002223968506 Time of Applicability(s): 589824 Orbital Inclination(rad): 0.9641332905 Rate of Right Ascen(r/s): -7.920329913e-09 SQRT(A) (m 1/2): 5153.522461 Right Ascen at Week(rad): -2.929377498 Argument of Perigee(rad): -2.292510694 Mean Anom(rad): 2.093621996 Af0(s): -0.000340660791 Af1(s/s): 1.455192e-11 week: 358 ******** Week 358 almanac for PRN-12 ******** ID: 12 Health: 0 Eccentricity: 0.00904750824 Time of Applicability(s): 589824 Orbital Inclination(rad): 0.9589680895 Rate of Right Ascen(r/s): -7.840326581e-09 SQRT(A) (m 1/2): 5153.732422 Right Ascen at Week(rad): 1.285114127 Argument of Perigee(rad): 1.557738391 Mean Anom(rad): -0.4885159561 Af0(s): -0.0004800905395 Af1(s/s): 0 week: 358 ******** Week 358 almanac for PRN-13 ******** ID: 13 Health: 0 Eccentricity: 0.009974956512 Time of Applicability(s): 589824 Orbital Inclination(rad): 0.9761414838 Rate of Right Ascen(r/s): -7.966046103e-09 SQRT(A) (m 1/2): 5153.614258 Right Ascen at Week(rad): -0.7302467607 Argument of Perigee(rad): 0.9971425651 Mean Anom(rad): 2.741162624 Af0(s): 0.0005418918335 Af1(s/s): 0 week: 358 ******** Week 358 almanac for PRN-14 ******** ID: 14 Health: 0 Eccentricity: 0.006675720215 Time of Applicability(s): 589824 Orbital Inclination(rad): 0.9423399775 Rate of Right Ascen(r/s): -8.000333246e-09 SQRT(A) (m 1/2): 5153.601562 Right Ascen at Week(rad): 1.230605753 Argument of Perigee(rad): -2.755027998 Mean Anom(rad): -0.6531552379 Af0(s): 0.0005818365723 Af1(s/s): 3.637979e-12 week: 358 ******** Week 358 almanac for PRN-15 ******** ID: 15 Health: 0 Eccentricity: 0.01660823822 Time of Applicability(s): 589824 Orbital Inclination(rad): 0.9423759302 Rate of Right Ascen(r/s): -8.331775623e-09 SQRT(A) (m 1/2): 5153.627441 Right Ascen at Week(rad): -1.049117774 Argument of Perigee(rad): 1.499681188 Mean Anom(rad): 1.995025156 Af0(s): 0.0003067454468 Af1(s/s): 3.637979e-12 week: 358 ******** Week 358 almanac for PRN-16 ******** ID: 16 Health: 0 Eccentricity: 0.01505088806 Time of Applicability(s): 589824 Orbital Inclination(rad): 0.9580992332 Rate of Right Ascen(r/s): -7.874613723e-09 SQRT(A) (m 1/2): 5153.596191 Right Ascen at Week(rad): 1.302111128 Argument of Perigee(rad): 0.9290085014 Mean Anom(rad): -2.268798407 Af0(s): 0.0001680693726 Af1(s/s): 7.275958e-12 week: 358 ******** Week 358 almanac for PRN-17 ******** ID: 17 Health: 0 Eccentricity: 0.01268291473 Time of Applicability(s): 589824 Orbital Inclination(rad): 0.9591778135 Rate of Right Ascen(r/s): -8.274630386e-09 SQRT(A) (m 1/2): 5153.529785 Right Ascen at Week(rad): 2.319742973 Argument of Perigee(rad): -1.124852083 Mean Anom(rad): 2.915713609 Af0(s): -5.426455078e-05 Af1(s/s): -1.091394e-11 week: 358 ******** Week 358 almanac for PRN-18 ******** ID: 18 Health: 0 Eccentricity: 0.005735874176 Time of Applicability(s): 589824 Orbital Inclination(rad): 0.9722286344 Rate of Right Ascen(r/s): -7.874613723e-09 SQRT(A) (m 1/2): 5153.59375 Right Ascen at Week(rad): -2.953265055 Argument of Perigee(rad): -2.860651339 Mean Anom(rad): 0.928106314 Af0(s): -0.0003316166992 Af1(s/s): 1.091394e-11 week: 358 ******** Week 358 almanac for PRN-19 ******** ID: 19 Health: 0 Eccentricity: 0.01109886169 Time of Applicability(s): 589824 Orbital Inclination(rad): 0.9583808625 Rate of Right Ascen(r/s): -8.263201338e-09 SQRT(A) (m 1/2): 5153.660645 Right Ascen at Week(rad): 2.363645683 Argument of Perigee(rad): 2.927338307 Mean Anom(rad): -1.541728964 Af0(s): 0.0005464138794 Af1(s/s): 0 week: 358 ******** Week 358 almanac for PRN-20 ******** ID: 20 Health: 255 Eccentricity: 0.0003070831299 Time of Applicability(s): 589824 Orbital Inclination(rad): 0.9599927408 Rate of Right Ascen(r/s): -8.137481816e-09 SQRT(A) (m 1/2): 5153.62793 Right Ascen at Week(rad): -0.8996022095 Argument of Perigee(rad): 1.259766368 Mean Anom(rad): 2.501833533 Af0(s): -8.139682617e-05 Af1(s/s): -8.294592e-10 week: 358 ******** Week 358 almanac for PRN-21 ******** ID: 21 Health: 0 Eccentricity: 0.0007042884827 Time of Applicability(s): 589824 Orbital Inclination(rad): 0.9624794674 Rate of Right Ascen(r/s): -7.863184676e-09 SQRT(A) (m 1/2): 5153.711914 Right Ascen at Week(rad): -1.905571156 Argument of Perigee(rad): -0.3649885578 Mean Anom(rad): -0.7466958584 Af0(s): 0.0003172968872 Af1(s/s): 3.637979e-12 week: 358 ******** Week 358 almanac for PRN-22 ******** ID: 22 Health: 0 Eccentricity: 0.01211118698 Time of Applicability(s): 589824 Orbital Inclination(rad): 0.9575359747 Rate of Right Ascen(r/s): -7.874613723e-09 SQRT(A) (m 1/2): 5153.578613 Right Ascen at Week(rad): 1.305462217 Argument of Perigee(rad): -0.994502665 Mean Anom(rad): -2.718983195 Af0(s): -3.466901855e-05 Af1(s/s): 3.637979e-12 week: 358 ******** Week 358 almanac for PRN-23 ******** ID: 23 Health: 0 Eccentricity: 0.006020069122 Time of Applicability(s): 589824 Orbital Inclination(rad): 0.9876103871 Rate of Right Ascen(r/s): -7.577458489e-09 SQRT(A) (m 1/2): 5153.661621 Right Ascen at Week(rad): -1.946651581 Argument of Perigee(rad): -2.740059327 Mean Anom(rad): -0.1963907367 Af0(s): 0.0004861199341 Af1(s/s): 3.637979e-12 week: 358 ******** Week 358 almanac for PRN-24 ******** ID: 24 Health: 0 Eccentricity: 0.01788139343 Time of Applicability(s): 589824 Orbital Inclination(rad): 0.9353232138 Rate of Right Ascen(r/s): -8.148910863e-09 SQRT(A) (m 1/2): 5153.591797 Right Ascen at Week(rad): 0.05923427866 Argument of Perigee(rad): 1.134226369 Mean Anom(rad): 1.142288007 Af0(s): -8.817989502e-05 Af1(s/s): 1.455192e-11 week: 358 ******** Week 358 almanac for PRN-25 ******** ID: 25 Health: 0 Eccentricity: 0.01294708252 Time of Applicability(s): 589824 Orbital Inclination(rad): 0.947373352 Rate of Right Ascen(r/s): -7.920329913e-09 SQRT(A) (m 1/2): 5153.679688 Right Ascen at Week(rad): 1.191364906 Argument of Perigee(rad): 1.156961941 Mean Anom(rad): -0.6290167619 Af0(s): 0.0003489512085 Af1(s/s): -3.637979e-12 week: 358 ******** Week 358 almanac for PRN-26 ******** ID: 26 Health: 0 Eccentricity: 0.01099729538 Time of Applicability(s): 589824 Orbital Inclination(rad): 0.9281926 Rate of Right Ascen(r/s): -8.103194673e-09 SQRT(A) (m 1/2): 5153.660156 Right Ascen at Week(rad): 1.116984814 Argument of Perigee(rad): 0.7092121989 Mean Anom(rad): -1.450959321 Af0(s): -0.0002615249878 Af1(s/s): -7.275958e-12 week: 358 ******** Week 358 almanac for PRN-27 ******** ID: 27 Health: 0 Eccentricity: 0.0143289566 Time of Applicability(s): 589824 Orbital Inclination(rad): 0.9525505371 Rate of Right Ascen(r/s): -8.308917528e-09 SQRT(A) (m 1/2): 5153.608887 Right Ascen at Week(rad): 2.247118945 Argument of Perigee(rad): 0.8789717408 Mean Anom(rad): 3.091631919 Af0(s): -3.768371582e-05 Af1(s/s): -1.091394e-11 week: 358 ******** Week 358 almanac for PRN-28 ******** ID: 28 Health: 0 Eccentricity: 0.0004053115845 Time of Applicability(s): 589824 Orbital Inclination(rad): 0.9622757356 Rate of Right Ascen(r/s): -7.817468486e-09 SQRT(A) (m 1/2): 5153.737793 Right Ascen at Week(rad): 0.1416924872 Argument of Perigee(rad): 0.08065271013 Mean Anom(rad): 0.4213155384 Af0(s): -0.0004672780762 Af1(s/s): 7.275958e-12 week: 358 ******** Week 358 almanac for PRN-29 ******** ID: 29 Health: 0 Eccentricity: 0.003351688385 Time of Applicability(s): 589824 Orbital Inclination(rad): 0.9618323193 Rate of Right Ascen(r/s): -8.228914196e-09 SQRT(A) (m 1/2): 5153.708984 Right Ascen at Week(rad): 2.336440743 Argument of Perigee(rad): 2.739973939 Mean Anom(rad): 2.962089938 Af0(s): -0.0002931793091 Af1(s/s): 7.275958e-12 week: 358 ******** Week 358 almanac for PRN-30 ******** ID: 30 Health: 0 Eccentricity: 0.008029937744 Time of Applicability(s): 589824 Orbital Inclination(rad): 0.9365875495 Rate of Right Ascen(r/s): -8.057478483e-09 SQRT(A) (m 1/2): 5153.708008 Right Ascen at Week(rad): 0.1586643967 Argument of Perigee(rad): -2.325570677 Mean Anom(rad): 0.005416869659 Af0(s): 0.0001017460327 Af1(s/s): 1.455192e-11 week: 358 ******** Week 358 almanac for PRN-31 ******** ID: 31 Health: 0 Eccentricity: 0.0108127594 Time of Applicability(s): 589824 Orbital Inclination(rad): 0.9550971849 Rate of Right Ascen(r/s): -7.851755628e-09 SQRT(A) (m 1/2): 5153.722656 Right Ascen at Week(rad): 0.1917004107 Argument of Perigee(rad): 0.9385943833 Mean Anom(rad): -0.9387048629 Af0(s): -0.0001311393311 Af1(s/s): 3.637979e-12 week: 358 ******** Week 358 almanac for PRN-32 ******** ID: 32 Health: 0 Eccentricity: 0.00931930542 Time of Applicability(s): 589824 Orbital Inclination(rad): 0.967626692 Rate of Right Ascen(r/s): -8.046049436e-09 SQRT(A) (m 1/2): 5153.669434 Right Ascen at Week(rad): -0.888277866 Argument of Perigee(rad): -2.003914455 Mean Anom(rad): -2.607190225 Af0(s): -6.481599121e-05 Af1(s/s): 1.818989e-11 week: 358